Location: *
(2.5500°S, 65.9667°W)
Time: 12:04:35
(UTC+00:00)

Cosmos 724 - Pass Details

Date: 26 October 2021
Orbit: 857 x 938 km, 65.6° (Epoch: 28 November)

Event Time Altitude Azimuth Distance (km) Brightness Sun altitude
Rises 23:10:30 0° 339° (NNW) 3,430 7.5 -14.7°
Reaches altitude 10° 23:12:59 10° 339° (NNW) 2,489 6.7 -15.3°
Maximum altitude 23:18:44 88° 254° (WSW) 860 4.2 -16.7°
Drops below altitude 10° 23:24:29 10° 160° (SSE) 2,490 6.6 -18.1°
Sets 23:26:58 0° 159° (SSE) 3,432 7.3 -18.7°
